Location: Waco, TX
(31.5480°N, 97.1670°W)
Time: 04:20:52
(UTC-06:00)

ISS - Pass Details

Date: 12 November 2017
Orbit: 402 x 407 km, 51.6° (Epoch: 19 November)

Event Time Altitude Azimuth Distance (km) Brightness Sun altitude
Rises 23:12:34 0° 203° (SSW) 2,304 - -70.8°
Reaches altitude 10° 23:14:48 10° 191° (S) 1,448 - -71.1°
Maximum altitude 23:17:38 28° 130° (SE) 780 - -71.6°
Drops below altitude 10° 23:20:30 10° 68° (ENE) 1,452 - -72.0°
Sets 23:22:44 0° 56° (ENE) 2,313 - -72.3°
